Voltar ao catálogo

FENGYUN 1C DEB

AtivoPO
NORAD 31300·DEBRIS·🇨🇳 China

Lançado May 10, 1999 de Taiyuan Satellite Launch Center

Loading…

Próximas Passagens (próximas 24 horas)

TLE

AtualizadoSource: Space-Track

Época: Sep 14, 2026, 03:01 UTC

1 31300U 99025BPJ 26257.12629693  .00001641  00000-0  83744-3 0  9993
2 31300  99.5381   0.6505 0058864  12.2789 107.8499 14.16353723   485

Acompanhe FENGYUN 1C DEB em tempo real com AllMySat

Download on the App Store